Weather in Vad

Russia / Komi Republic     61°35′12″N   54°59′09″E
temp.,
°C
wind,
m/s
gust,
m/s
humid.,
%
clouds,
%
prec.,
mm/h
press.,
hPa
HPBL,
m
23 june, wed
wed2300:00+12ene249491 0.0 101892
03:00+12ene25885 0.0 1018160
06:00+16ene23575 0.0 1019438
09:00+21ene224184 0.0 1019995
12:00+25nne12355 0.0 10181475
15:00+26nnw233518 0.0 10181588
18:00+25nne12465 0.0 1017269
21:00+19sse2266100 0.1 101718
24 june, thu
thu2400:00+17ssw2285100 0.5 101640
03:00+16sw119388 0.5 101621
06:00+21wnw237433 0.0 1016365
09:00+27wnw225044 0.0 10151002
12:00+29w2341100 0.0 10131683
15:00+30w353986 0.0 10122328
18:00+28nne255145 0.0 1011273
21:00+18ene269619 1.3 1012162
25 june, fri
fri2500:00+17se259694 3.0 101084
03:00+18s249689 3.0 101089
06:00+22wnw37827 0.0 1010358
09:00+27nw355040 0.0 10091246
12:00+30wnw574196 0.0 10082506
15:00+29nw573843 0.0 10082204
18:00+26nnw58493 0.0 10091279
21:00+17n49800 0.0 1012583
26 june, sat
sat2600:00+12nnw378884 0.0 1013423
03:00+14nnw377892 0.0 1013538
06:00+15nnw35675 0.0 1014693
09:00+20n35503 0.0 10141254
12:00+23nne344220 0.0 10131717
15:00+22ne544860 0.0 10141407
18:00+19ne4464100 0.0 1015695
21:00+14ne259076 0.0 1016122
27 june, sun
sun2700:00+12ene2394100 0.0 101689
03:00+14ne128596 0.0 1016155
06:00+15ne1176100 0.0 1016366
09:00+21nne1157100 0.0 1015840
12:00+23n224811 0.0 10151512
15:00+24nnw234085 0.0 10142220
18:00+20e366194 0.0 1015343
21:00+16ese11813 0.0 101612